• In Czech Republic
  • List of Countries
  • For 7 days
  • Water Temperature
  • Satellite Maps
  • Weather Map
  • Weather Widgets
  • user-avatar
    Login

    Hourly Weather Jewłach

    Today, 21 August, Tuesday

    Time Temperature Precipitation Wind Pressure Humidity
    00:00 +23°C° 0 mm 2 mps 762 mmHg 57%
    01:00 +23°C° 0 mm 2 mps 762 mmHg 58%
    02:00 +23°C° 0 mm 2 mps 761 mmHg 59%
    03:00 +22°C° 0 mm 1 mps 761 mmHg 60%
    04:00 +23°C° 0 mm 1 mps 761 mmHg 60%
    05:00 +23°C° 0 mm 1 mps 761 mmHg 59%
    06:00 +21°C° 0 mm 0 mps 761 mmHg 59%
    07:00 +24°C° 0 mm 1 mps 761 mmHg 54%
    08:00 +26°C° 0 mm 1 mps 761 mmHg 49%
    09:00 +27°C° 0 mm 1 mps 760 mmHg 45%
    10:00 +29°C° 0 mm 2 mps 760 mmHg 41%
    11:00 +30°C° 0 mm 2 mps 760 mmHg 38%
    12:00 +31°C° 0 mm 3 mps 759 mmHg 35%
    13:00 +33°C° 0 mm 3 mps 759 mmHg 34%
    14:00 +34°C° 0 mm 3 mps 758 mmHg 32%
    15:00 +34°C° 0 mm 3 mps 758 mmHg 31%
    16:00 +34°C° 0 mm 3 mps 758 mmHg 33%
    17:00 +34°C° 0 mm 3 mps 758 mmHg 34%
    18:00 +33°C° 0 mm 3 mps 758 mmHg 36%
    19:00 +31°C° 0 mm 3 mps 759 mmHg 39%
    20:00 +29°C° 0 mm 3 mps 759 mmHg 43%
    21:00 +28°C° 0 mm 4 mps 759 mmHg 46%
    22:00 +27°C° 0 mm 3 mps 759 mmHg 49%
    23:00 +26°C° 0 mm 3 mps 759 mmHg 52%

    Tomorrow, 22 August, Wednesday

    Time Temperature Precipitation Wind Pressure Humidity
    00:00 +25°C° 0 mm 2 mps 759 mmHg 55%
    01:00 +25°C° 0 mm 2 mps 759 mmHg 56%
    02:00 +24°C° 0 mm 1 mps 759 mmHg 57%
    03:00 +24°C° 0 mm 1 mps 759 mmHg 59%
    04:00 +24°C° 0 mm 1 mps 759 mmHg 58%
    05:00 +24°C° 0 mm 1 mps 759 mmHg 57%
    06:00 +25°C° 0 mm 1 mps 759 mmHg 57%
    07:00 +26°C° 0 mm 1 mps 759 mmHg 51%
    08:00 +28°C° 0 mm 2 mps 759 mmHg 45%
    09:00 +30°C° 0 mm 2 mps 759 mmHg 39%
    10:00 +31°C° 0 mm 2 mps 758 mmHg 36%
    11:00 +32°C° 0 mm 2 mps 758 mmHg 33%
    12:00 +35°C° 0 mm 2 mps 757 mmHg 30%
    13:00 +35°C° 0 mm 2 mps 757 mmHg 28%
    14:00 +36°C° 0 mm 2 mps 756 mmHg 27%
    15:00 +37°C° 0 mm 3 mps 756 mmHg 25%
    16:00 +36°C° 0 mm 2 mps 756 mmHg 27%
    17:00 +36°C° 0 mm 2 mps 756 mmHg 28%
    18:00 +35°C° 0 mm 2 mps 757 mmHg 30%
    19:00 +34°C° 0 mm 2 mps 757 mmHg 32%
    20:00 +31°C° 0 mm 3 mps 758 mmHg 35%
    21:00 +30°C° 0 mm 3 mps 759 mmHg 37%
    22:00 +29°C° 0 mm 3 mps 759 mmHg 40%
    23:00 +28°C° 0 mm 2 mps 759 mmHg 42%

    Day after tomorrow, 23 August, Thursday

    Time Temperature Precipitation Wind Pressure Humidity
    00:00 +27°C° 0 mm 2 mps 759 mmHg 45%
    01:00 +27°C° 0 mm 2 mps 759 mmHg 46%
    02:00 +26°C° 0 mm 1 mps 759 mmHg 48%
    03:00 +26°C° 0 mm 1 mps 759 mmHg 50%
    04:00 +26°C° 0 mm 1 mps 759 mmHg 50%
    05:00 +26°C° 0 mm 1 mps 759 mmHg 50%
    06:00 +26°C° 0 mm 1 mps 759 mmHg 50%
    07:00 +28°C° 0 mm 1 mps 759 mmHg 44%
    08:00 +30°C° 0 mm 1 mps 759 mmHg 38%
    09:00 +32°C° 0 mm 2 mps 759 mmHg 33%
    10:00 +34°C° 0 mm 2 mps 759 mmHg 30%
    11:00 +35°C° 0 mm 2 mps 759 mmHg 27%
    12:00 +36°C° 0 mm 3 mps 758 mmHg 24%
    13:00 +37°C° 0 mm 3 mps 758 mmHg 23%
    14:00 +38°C° 0 mm 4 mps 758 mmHg 22%
    15:00 +40°C° 0 mm 4 mps 758 mmHg 21%
    16:00 +38°C° 0 mm 4 mps 758 mmHg 22%
    17:00 +37°C° 0 mm 4 mps 758 mmHg 24%
    18:00 +36°C° 0 mm 4 mps 758 mmHg 25%
    19:00 +35°C° 0 mm 4 mps 759 mmHg 28%
    20:00 +33°C° 0 mm 4 mps 759 mmHg 30%
    21:00 +32°C° 0 mm 5 mps 760 mmHg 33%
    22:00 +30°C° 0 mm 4 mps 760 mmHg 35%
    23:00 +29°C° 0 mm 4 mps 760 mmHg 37%

    24 August, Friday

    Time Temperature Precipitation Wind Pressure Humidity
    00:00 +28°C° 0 mm 3 mps 760 mmHg 39%
    01:00 +28°C° 0 mm 3 mps 760 mmHg 40%
    02:00 +27°C° 0 mm 2 mps 760 mmHg 41%
    03:00 +27°C° 0 mm 2 mps 760 mmHg 42%
    04:00 +27°C° 0 mm 2 mps 760 mmHg 42%
    05:00 +27°C° 0 mm 2 mps 760 mmHg 43%
    06:00 +27°C° 0 mm 1 mps 761 mmHg 43%
    07:00 +28°C° 0 mm 2 mps 761 mmHg 39%
    08:00 +30°C° 0 mm 3 mps 760 mmHg 35%
    09:00 +33°C° 0 mm 3 mps 760 mmHg 31%
    10:00 +34°C° 0 mm 4 mps 760 mmHg 29%
    11:00 +35°C° 0 mm 4 mps 760 mmHg 28%
    12:00 +36°C° 0 mm 4 mps 759 mmHg 26%
    13:00 +37°C° 0 mm 4 mps 759 mmHg 25%
    14:00 +37°C° 0 mm 5 mps 758 mmHg 24%
    15:00 +39°C° 0 mm 5 mps 758 mmHg 23%
    16:00 +37°C° 0 mm 5 mps 758 mmHg 24%
    17:00 +36°C° 0 mm 5 mps 758 mmHg 26%
    18:00 +36°C° 0 mm 5 mps 758 mmHg 27%
    19:00 +34°C° 0 mm 5 mps 759 mmHg 30%
    20:00 +32°C° 0 mm 5 mps 759 mmHg 34%
    21:00 +29°C° 0 mm 5 mps 760 mmHg 37%
    22:00 +28°C° 0 mm 5 mps 759 mmHg 40%
    23:00 +28°C° 0 mm 4 mps 759 mmHg 43%

    25 August, Saturday

    Time Temperature Precipitation Wind Pressure Humidity
    00:00 +27°C° 0 mm 3 mps 759 mmHg 46%
    01:00 +26°C° 0 mm 3 mps 759 mmHg 48%
    02:00 +26°C° 0 mm 2 mps 759 mmHg 49%
    03:00 +25°C° 0 mm 2 mps 759 mmHg 51%
    04:00 +25°C° 0 mm 2 mps 759 mmHg 52%
    05:00 +25°C° 0 mm 1 mps 759 mmHg 52%
    06:00 +25°C° 0 mm 1 mps 759 mmHg 52%
    07:00 +27°C° 0 mm 2 mps 759 mmHg 46%
    08:00 +29°C° 0 mm 2 mps 759 mmHg 39%
    09:00 +31°C° 0 mm 3 mps 759 mmHg 32%
    10:00 +33°C° 0 mm 3 mps 759 mmHg 30%
    11:00 +34°C° 0 mm 3 mps 758 mmHg 27%
    12:00 +36°C° 0 mm 4 mps 758 mmHg 24%
    13:00 +36°C° 0 mm 4 mps 757 mmHg 23%
    14:00 +37°C° 0 mm 4 mps 757 mmHg 22%
    15:00 +37°C° 0 mm 4 mps 756 mmHg 21%
    16:00 +37°C° 0 mm 4 mps 756 mmHg 22%
    17:00 +36°C° 0 mm 4 mps 757 mmHg 23%
    18:00 +35°C° 0 mm 4 mps 757 mmHg 24%
    19:00 +33°C° 0 mm 4 mps 757 mmHg 27%
    20:00 +32°C° 0 mm 4 mps 757 mmHg 31%
    21:00 +29°C° 0 mm 4 mps 758 mmHg 34%
    22:00 +28°C° 0 mm 4 mps 758 mmHg 36%
    23:00 +27°C° 0 mm 3 mps 758 mmHg 38%

    26 August, Sunday

    Time Temperature Precipitation Wind Pressure Humidity
    00:00 +26°C° 0 mm 2 mps 758 mmHg 41%
    01:00 +26°C° 0 mm 2 mps 757 mmHg 42%
    02:00 +25°C° 0 mm 1 mps 757 mmHg 43%
    03:00 +25°C° 0 mm 1 mps 757 mmHg 45%
    04:00 +25°C° 0 mm 1 mps 757 mmHg 44%
    05:00 +25°C° 0 mm 1 mps 757 mmHg 44%
    06:00 +25°C° 0 mm 1 mps 757 mmHg 44%
    07:00 +27°C° 0 mm 1 mps 757 mmHg 39%
    08:00 +29°C° 0 mm 1 mps 756 mmHg 34%
    09:00 +31°C° 0 mm 2 mps 756 mmHg 29%
    10:00 +32°C° 0 mm 2 mps 755 mmHg 26%
    11:00 +34°C° 0 mm 2 mps 755 mmHg 24%
    12:00 +36°C° 0 mm 2 mps 754 mmHg 21%
    13:00 +37°C° 0 mm 2 mps 754 mmHg 20%
    14:00 +37°C° 0 mm 3 mps 753 mmHg 18%
    15:00 +38°C° 0 mm 3 mps 753 mmHg 17%
    16:00 +37°C° 0 mm 3 mps 753 mmHg 18%
    17:00 +37°C° 0 mm 3 mps 754 mmHg 20%
    18:00 +36°C° 0 mm 3 mps 754 mmHg 21%
    19:00 +34°C° 0 mm 3 mps 754 mmHg 23%
    20:00 +31°C° 0 mm 3 mps 755 mmHg 26%
    21:00 +30°C° 0 mm 3 mps 755 mmHg 29%
    22:00 +29°C° 0 mm 3 mps 755 mmHg 31%
    23:00 +28°C° 0 mm 2 mps 756 mmHg 34%
    Show more